Terminal Aerodrome Forecast
Issued by NWS

Current Version | Previous Version | Text Only | Print | Product List | Glossary On
Versions: 1 2 3 4 5 6 7 8 9 10 11 12 13 14 15 16 17 18 19 20 21 22 23 24 25 26 27 28 29 30
452 FTUS41 KBOX 072343 TAFBED TAF KBED 072343Z 0800/0824 VRB03KT P6SM SCT200 FM080600 05006KT P6SM BKN025 FM080800 04007KT P6SM VCSH BKN015 FM081100 03010G17KT P6SM -SN OVC015 FM081200 03011G19KT 1/2SM SN FG OVC015 FM081400 03010G18KT 1/4SM +SN FG OVC015 FM081800 01010G25KT 1SM -SN BR OVC015 FM082300 01008KT 1SM -SN BR OVC015=

USA.gov is the U.S. government's official web portal to all federal, state and local government web resources and services.